Starlink 32398

operational
NORAD ID: 61624 Int'l Des: 2024-191 Owner: SPXS Country: US Constellation: starlink
LEOCIRCULAR

About Starlink 32398

Description loading...

Live Position

Loading 3D Globe...

Upcoming Passes

Altitude History

Altitude vs Time

uPlot chart will show altitude changes over time

Two-Line Element Set

1 61624U 24191D 25352.13684316 .00012619 00000-0 46845-3 0 9994
2 61624 43.0014 255.1057 0000679 278.0963 81.9812 15.27499523 65068
Epoch: Dec 18, 2025 • Age: 16 hours

Current Status

Altitude 486.1 km
Velocity 7.63 km/s
Sub-Earth Point 40.16°N, 61.44°W
Launch Date Oct 23, 2024
Age 1.1 years
Type internet

Technical Details

Classification Payload
Mass 730.00 kg
Dry Mass 700.00 kg
Total Mass 730.00 kg
Length 0.30 m
Diameter 4.10 m
Span 29.00 m
Shape Box + pan
Manufacturer SPXS
Bus Type Starlink V2M
Phase Status In Orbit
Owner/State SPXS/US

Large Constellations

Loading constellations...